NUSANTARA SATU

Last updated on Tue Sep 22 2026 00:03:14 GMT+0000 (Coordinated Universal Time)

1 44048U 19009A 26264.56294771 -.00000238 00000+0 00000+0 0 9992 2 44048 0.0251 140.9899 0004586 9.4617 198.6722 1.00270476 27731
UTC large
Height (km)
Speed (km/s)
/
Latitude / Longitude
Inclination (degrees)
Orbital Period (minutes)
Azimuth
Elevation
Range (km)
Doppler Factor

Next 0 passes for location: London (51.5072 / 0.1276)

No passes found over London.
NUSANTARA SATU